This is the latest recevied weather packets stored in our database for station/object CA3DPI. If no packets are shown the sender has not sent any weather packets the latest 10 day(s).
| Time | Temp. | Humidity | Pressure | Rain* | Wind** | Luminosity | Snow |
|---|---|---|---|---|---|---|---|
| 1777840023 | 31.67° C | 21% | 1019 hPa | - | - | - | - |
| 1777839423 | 31.67° C | 21% | 1019.1 hPa | - | - | - | - |
| 1777838822 | 32.22° C | 25% | 1019 hPa | - | - | - | - |
| 1777838222 | 32.78° C | 27% | 1019 hPa | - | - | - | - |
| 1777837622 | 32.22° C | 24% | 1018.9 hPa | - | - | - | - |
| 1777837022 | 33.89° C | 19% | 1019 hPa | - | - | - | - |
| 1777836421 | 34.44° C | 24% | 1018.9 hPa | - | - | - | - |
| 1777835821 | 35° C | 27% | 1019 hPa | - | - | - | - |
| 1777835221 | 35.56° C | 22% | 1019.1 hPa | - | - | - | - |
| 1777834621 | 35.56° C | 23% | 1019 hPa | - | - | - | - |
| 1777834021 | 35° C | 27% | 1019.1 hPa | - | - | - | - |
| 1777833421 | 34.44° C | 21% | 1019 hPa | - | - | - | - |
| 1777832820 | 34.44° C | 27% | 1019.1 hPa | - | - | - | - |
| 1777832220 | 35° C | 30% | 1019.1 hPa | - | - | - | - |
| 1777831620 | 35.56° C | 25% | 1019.1 hPa | - | - | - | - |
| 1777831020 | 35.56° C | 24% | 1019.2 hPa | - | - | - | - |
| 1777830420 | 36.67° C | 31% | 1019.2 hPa | - | - | - | - |
| 1777829820 | 36.11° C | 29% | 1019.2 hPa | - | - | - | - |
| 1777829219 | 36.11° C | 27% | 1019.2 hPa | - | - | - | - |
| 1777828619 | 35.56° C | 26% | 1019.2 hPa | - | - | - | - |
| 1777828019 | 35° C | 27% | 1019.6 hPa | - | - | - | - |
| 1777827419 | 35° C | 31% | 1019.8 hPa | - | - | - | - |
| 1777826819 | 34.44° C | 26% | 1019.9 hPa | - | - | - | - |
| 1777826219 | 34.44° C | 29% | 1020 hPa | - | - | - | - |
| 1777825618 | 34.44° C | 30% | 1020 hPa | - | - | - | - |
* Rain since midnight (hover to see other rain measurements)
** Current wind speed in m/s (hover to see current wind gust speed)